Weather History for Yuma MCAS, AZ

Change the Weather History Date:

Saturday, July 5, 2014

  Actual Average Record
Temperature  
Mean Temperature 95 °F 94 °F  
Max Temperature 106 °F 107 °F 116 °F (1905)
Min Temperature 84 °F 81 °F 64 °F (1921)
Degree Days  
Heating Degree Days 0 0  
Month to date heating degree days 0 0  
Since 1 June heating degree days 0 0  
Since 1 July heating degree days 0 0  
Cooling Degree Days 30 29  
Month to date cooling degree days 154 141  
Year to date cooling degree days 2125 1774  
Since 1 June cooling degree days 963 862  
Growing Degree Days 44 (Base 50)    
Moisture  
Dew Point 66 °F    
Average Humidity 44    
Maximum Humidity 65    
Minimum Humidity 23    
Precipitation  
Precipitation 0.02 in 0.00 in 0.32 in (1968)
Month to date precipitation 0.22 0.01  
Year to date precipitation 0.29 1.34  
Sea Level Pressure  
Sea Level Pressure 29.90 in    
Wind  
Wind Speed 9 mph (SSE)    
Max Wind Speed 30 mph    
Max Gust Speed 35 mph    
Visibility 10 miles    
Events Thunderstorm    
T = Trace of Precipitation, MM = Missing Value Source: NWS Daily Summary

Daily Weather History Graph

Daily Weather History Graph

Search for Another Location

Airport:

Trip Planner

Search our weather history database for the weather conditions in past years. The results will help you decide how hot, cold, wet, or windy it might be!

Date:

Astronomy

Jul. 05, 2014 Rise Set
Actual Time 5:36 AM MST 7:49 PM MST
Civil Twilight 5:07 AM MST 8:18 PM MST
Nautical Twilight 4:33 AM MST 8:52 PM MST
Astronomical Twilight 3:55 AM MST 9:30 PM MST
Moon 1:07 PM MST (7/5) 12:09 AM MST (7/5)
Length of Visible Light 15h 10m
Length of Day
14h 13m
First Quarter, 53% of the Moon is Illuminated
Jul 5
First Quarter
Jul 12
Full
Jul 18
Last Quarter
Jul 26
New
Aug 3
First Quarter

Hourly Weather History & Observations

Time (MST) Temp. Heat Index Dew Point Humidity Pressure Visibility Wind Dir Wind Speed Gust Speed Precip Events Conditions
12:57 AM 84.0 °F 87.8 °F 69.1 °F 61% 29.91 in 10.0 mi South 5.8 mph - N/A   Clear
1:57 AM 84.9 °F 88.8 °F 69.1 °F 59% 29.92 in 10.0 mi South 3.5 mph - N/A   Clear
2:57 AM 84.9 °F 90.1 °F 71.1 °F 63% 29.92 in 10.0 mi SSE 8.1 mph - N/A   Clear
3:57 AM 84.9 °F 90.1 °F 71.1 °F 63% 29.91 in 10.0 mi SSE 4.6 mph - N/A   Clear
4:57 AM 84.9 °F 90.1 °F 71.1 °F 63% 29.93 in 10.0 mi SE 9.2 mph - N/A   Clear
5:57 AM 84.0 °F 89.0 °F 71.1 °F 65% 29.94 in 10.0 mi SSE 8.1 mph - N/A   Clear
6:57 AM 86.0 °F 90.1 °F 69.1 °F 57% 29.96 in 10.0 mi SSE 9.2 mph - N/A   Clear
7:57 AM 89.1 °F 92.9 °F 68.0 °F 50% 29.97 in 10.0 mi SSE 10.4 mph - N/A   Clear
8:57 AM 90.0 °F 95.4 °F 70.0 °F 52% 29.99 in 10.0 mi SSE 10.4 mph - N/A   Clear
9:57 AM 93.0 °F 97.9 °F 69.1 °F 45% 29.98 in 10.0 mi SE 13.8 mph - N/A   Partly Cloudy
10:57 AM 96.1 °F 99.3 °F 66.0 °F 37% 29.97 in 10.0 mi SSE 11.5 mph - N/A   Clear
11:57 AM 99.0 °F 102.3 °F 64.9 °F 33% 29.94 in 10.0 mi SSE 10.4 mph 16.1 mph N/A   Clear
12:57 PM 100.0 °F 101.8 °F 63.0 °F 29% 29.93 in 10.0 mi South 6.9 mph - N/A   Clear
1:57 PM 102.0 °F 104.6 °F 63.0 °F 28% 29.91 in 10.0 mi SSE 3.5 mph - N/A   Clear
2:57 PM 102.9 °F 105.5 °F 63.0 °F 27% 29.88 in 10.0 mi SSE 8.1 mph - N/A   Clear
3:57 PM 102.9 °F 104.8 °F 62.1 °F 26% 29.84 in 10.0 mi Variable 4.6 mph - N/A   Clear
4:57 PM 105.1 °F 106.4 °F 60.1 °F 23% 29.84 in 10.0 mi South 9.2 mph - N/A   Clear
5:13 PM 105.1 °F 106.4 °F 60.1 °F 23% 29.84 in 10.0 mi SSW 8.1 mph - N/A Thunderstorm Thunderstorm
5:29 PM 105.1 °F 106.4 °F 60.1 °F 23% 29.84 in 10.0 mi SSW 10.4 mph - N/A   Clear
5:38 PM 105.1 °F 106.4 °F 60.1 °F 23% 29.86 in 10.0 mi SSE 23.0 mph 27.6 mph N/A Thunderstorm Thunderstorm
5:57 PM 97.0 °F 99.9 °F 64.9 °F 35% 29.86 in 10.0 mi SE 28.8 mph 34.5 mph N/A Thunderstorm Thunderstorm
6:57 PM 95.0 °F 100.7 °F 69.1 °F 43% 29.86 in 10.0 mi ENE 12.7 mph - 0.02 in   Mostly Cloudy
7:57 PM 91.0 °F 91.9 °F 63.0 °F 39% 29.87 in 10.0 mi ENE 11.5 mph 28.8 mph 0.00 in   Partly Cloudy
8:57 PM 91.0 °F 91.9 °F 63.0 °F 39% 29.87 in 10.0 mi East 5.8 mph - N/A   Clear
9:57 PM 90.0 °F 92.8 °F 66.9 °F 46% 29.87 in 10.0 mi SSW 5.8 mph - N/A   Clear
10:57 PM 90.0 °F 91.3 °F 64.0 °F 42% 29.88 in 10.0 mi NE 8.1 mph - N/A   Clear
11:57 PM 89.1 °F 91.3 °F 66.0 °F 46% 29.87 in 10.0 mi Calm Calm - N/A   Clear